Regional Weather Roundup
Issued by NWS Goodland, KS

Home | Current Version | Previous Version | Text Only | Print | Product List | Glossary On
Versions: 1 2 3 4 5 6 7 8 9 10 11 12 13 14 15 16 17 18 19 20 21 22 23 24 25 26 27 28 29 30 31 32 33 34 35 36 37 38 39 40 41 42 43 44 45 46 47 48 49 50
000
ASUS43 KGLD 301708
RWRGLD

GOODLAND FORECAST AREA HOURLY WEATHER ROUNDUP
NATIONAL WEATHER SERVICE GOODLAND KS
1000 AM MST FRI JAN 30 2015

...OFFICIAL OBSERVATIONS...

CITY           SKY/WX    TMP DP  RH WIND       PRES   REMARKS
GOODLAND KS    CLOUDY    41  27  57 S21G28    30.27F
HILL CITY KS   CLOUDY    41  25  53 S14G20    30.40F
IMPERIAL NEB   CLOUDY    40  26  57 S12       30.26F
MCCOOK NEB     CLOUDY    41  28  60 S9        30.34F
AKRON CO       CLOUDY    43  28  55 SW17G23   30.19S
BURLINGTON CO  CLOUDY    44  28  53 S24G32    30.26R
LIMON CO       MOSUNNY   40  27  59 S15G22    30.23S
$$

...UNOFFICIAL OBSERVATIONS...

CITY           SKY/WX    TMP DP  RH WIND       PRES   REMARKS
COLBY KS       MOSUNNY   39  30  70 S16G23    30.32S
GOVE KS          N/A     41  32  70 MISG        N/A
NORTON KS      SUNNY     37  23  56 S10       30.37S
SHARON SPRINGS   N/A     43  29  57 S20G28      N/A
KIT CARSON CO    N/A     42  32  67 MISG        N/A
$$


USA.gov is the U.S. government's official web portal to all federal, state and local government web resources and services.